Location: Saint-Hippolyte
(43.6394°N, 4.7559°E)
Time: 15:29:42
(UTC+00:00)

Cosmos 1400 Rocket - Pass Details

Date: 24 October 2020
Orbit: 521 x 568 km, 81.2° (Epoch: 24 November)

Event Time Altitude Azimuth Distance (km) Brightness Sun altitude
Rises 17:35:18 0° 166° (SSE) 2,755 6.3 -10.1°
Reaches altitude 10° 17:37:38 10° 156° (SSE) 1,862 5.3 -10.6°
Maximum altitude 17:41:18 32° 93° (E) 983 3.6 -11.2°
Drops below altitude 10° 17:44:59 10° 30° (NNE) 1,864 5.2 -11.9°
Sets 17:47:19 0° 20° (NNE) 2,759 6.1 -12.3°
